Погода в Орехове

Россия / Волгоградская область     50°28′24″N   44°25′27″E
темп.,
°C
ветер,
м/с
пор.,
м/с
влажн.,
%
обл.,
%
осадки,
мм/ч
давл.,
гПа
погр.,
м
19 апреля, пн
пн1900:00+10св116138 0.0 101712
03:00+9св226567 0.0 101612
06:00+9с117096 0.0 101610
09:00+13з116069 0.0 1016624
12:00+15ююв3251100 0.1 10151715
15:00+12юв3461100 0.1 1015377
18:00+11всв4681100 0.1 1015471
21:00+9всв4690100 0.2 1016368
20 апреля, вт
вт2000:00+9всв3690100 0.1 1016314
03:00+8всв3693100 0.1 1015249
06:00+9в51092100 0.1 1016456
09:00+7вюв81390100 0.1 1016497
12:00+8в101584100 0.0 1016633
15:00+10вюв101782100 0.4 1014883
18:00+8в112089100 4.4 1012786
21:00+10юв142393100 7.9 1010878
21 апреля, ср
ср2100:00+10юв122192100 7.0 1011953
03:00+10юв122092100 7.1 1011803
06:00+9юв101791100 0.1 1012662
09:00+10ю6128394 0.6 10141027
12:00+12юз787499 0.1 10151112
15:00+12юз5671100 0.4 1016819
18:00+12ю247648 0.3 1017139
21:00+9ююв359274 1.6 101896
22 апреля, чт
чт2200:00+8ю35935 0.9 101996
03:00+7ююз34936 0.9 102068
06:00+7юз25915 0.0 1021134
09:00+13зюз45654 0.0 1022790
12:00+15зюз444634 0.0 10221904
15:00+15зюз4449100 0.0 10231443
18:00+14юз116084 0.0 102413
21:00+12ю116094 0.0 102410
23 апреля, пт
пт2300:00+12юв2261100 0.0 102413
03:00+11юв2369100 0.0 102450
06:00+11юв2478100 0.0 1024102
09:00+14юв44625 0.8 1024512
12:00+16юв434698 0.9 10232110
15:00+15вюв235592 0.9 1022740
18:00+14вюв23625 0.3 102269
21:00+10вюв227525 2.0 102113